Weather in Savinka

Russia / Volgograd Oblast     50°04′33″N   47°05′53″E
temp.,
°C
wind,
m/s
gust,
m/s
humid.,
%
clouds,
%
prec.,
mm/h
press.,
hPa
HPBL,
m
27 february, sat
sat2700:00+3wsw815100100 0.3 1007359
03:00+3w816100100 0.4 1007425
06:00+2w61398100 0.0 1005333
09:00+1w61195100 0.0 1006320
12:00+2wsw612100100 0.0 1006440
15:00+2w71398100 0.0 1005510
18:00+1w61391100 0.0 1004465
21:000w7149291 0.0 1005404
28 february, sun
sun2800:00−5nw91382100 0.2 1006632
03:00−9nw8138470 0.2 1009635
06:00−11nw7128420 0.0 1011607
09:00−11nw6108110 0.0 1012545
12:00−9nw68800 0.0 1014538
15:00−8nw58810 0.0 1014581
18:00−10nw36890 0.0 1015215
21:00−11nw36900 0.0 1018158
1 march, mon
mon100:00−12nw35910 0.0 1019136
03:00−13nnw36910 0.0 1020163
06:00−13nnw35910 0.0 1021149
09:00−12nnw35840 0.0 1024257
12:00−10nnw34780 0.0 1024398
15:00−9nw34810 0.0 1025408
18:00−11nw22880 0.0 102621
21:00−11wnw12860 0.0 102621
2 march, tue
tue200:00−11wsw23880 0.0 102634
03:00−11wsw34910 0.0 102472
06:00−10sw479325 0.0 1022115
09:00−5sw6128962 0.0 1019349
12:00−1wsw81384100 0.0 1016932
15:00−1wsw101596100 1.1 1013868
18:00−1wsw81597100 2.1 1010709
21:000w71295100 2.5 1009431
3 march, wed
wed300:00−3wnw5129494 0.1 1008303
03:00−3wnw6129286 0.1 1008324
06:00−5wnw5119327 0.0 1009250
09:00−2wnw7129151 0.1 1010606
12:00−1nw7108798 0.1 1011874
15:00−1wnw7108499 0.1 10121001
18:00−2wnw61286100 0.1 1013519
21:00−5wnw5118892 0.1 1015267